Location: Alfortville
(48.8058°N, 2.4204°E)
Time: 22:38:44
(UTC+00:00)

SR - Pass Details

Date: 20 April 2026
Orbit: 568 x 852 km, 66.7° (Epoch: 19 May)

Event Time Altitude Azimuth Distance (km) Brightness Sun altitude
Rises 22:35:44 0° 317° (NW) 3,313 ? -27.3°
Reaches altitude 10° 22:38:21 10° 308° (NW) 2,414 ? -27.4°
Enters shadow 22:43:08 31° 249° (WSW) 1,437 ? -27.7°
